Regional Weather Roundup
Issued by NWS

Home | Current Version | Previous Version | Text Only | Print | Product List | Glossary Off
Versions: 1 2 3 4 5 6 7 8 9 10 11 12 13 14 15 16 17 18 19 20 21 22 23 24 25 26 27 28 29 30 31 32 33 34 35 36 37 38 39 40 41 42 43 44 45 46 47 48 49 50

000
ASUS45 KTFX 291719
RWRMT
MONTANA HOURLY WEATHER ROUNDUP
NATIONAL WEATHER SERVICE GREAT FALLS MT
1119 AM MDT TUE JUL 29 2014

NOTE: "FAIR" INDICATES FEW OR NO CLOUDS BELOW 12000 FEET WITH NO
SIGNIFICANT WEATHER AND/OR OBSTRUCTIONS TO VISIBILITY.

* THESE STATIONS ARE NOT UNDER NWS QUALITY CONTROL. THEY DO NOT
   REPORT WEATHER SUCH AS PRECIPITATION OR FOG.

MTZ001>007-043-291800-
WEST OF THE DIVIDE
CITY           SKY/WX    TMP DP  RH WIND       PRES   REMARKS
KALISPELL      SUNNY     79  52  39 NE8       30.17F
MISSOULA       PTCLDY    77  43  30 CALM      30.19F
BUTTE          SUNNY     75  43  32 CALM      30.30F
MULLAN PASS    SUNNY     75  45  34 CALM      30.35S
* LINCOLN      N/A       72  46  40 W3         N/A
* LOOKOUT PASS N/A       77  48  36 S4         N/A
* POLSON       N/A       80  52  38 SE3        N/A
* RONAN APT    SUNNY     79  52  39 N/A        N/A
* SEELEY LAKE  N/A       78  47  34 W2         N/A
* THOMP F APT  SUNNY     67  41  39 N6G16      N/A
* YAAK HILL    N/A       77  51  40 S2         N/A
$$

MTZ008-052>055-291800-
SOUTHWEST MONTANA
CITY           SKY/WX    TMP DP  RH WIND       PRES   REMARKS
BOZEMAN        PTCLDY    75  52  45 N5        30.25S
DILLON         SUNNY     75  48  39 CALM      30.27F
W YELLOWSTONE  CLOUDY    63  50  63 CALM      30.38F
* THREE FORKS  PTCLDY    77  55  47 N/A        N/A
* BOULDER HILL N/A       68  42  39 NE6        N/A
* MONIDA PASS  N/A       66  46  49 VRB4       N/A
* RAYNOLDS PAS N/A       59  36  42 N/A        N/A
* WHITEHALL    N/A       76  49  39 S4         N/A
* WISE RIVER   N/A       69  47  46 NW2G7      N/A
$$

MTZ009>010-012-014-046-048-049-054-291800-
EAST SLOPES AND CENTRAL MONTANA
CITY           SKY/WX    TMP DP  RH WIND       PRES   REMARKS
CUT BANK       SUNNY     79  48  34 E7        30.23S
GREAT FALLS    SUNNY     81  46  29 VRB3      30.21S
HELENA         PTCLDY    81  45  28 N3        30.21F
MALMSTROM AFB  SUNNY     79  48  34 N3        30.21F
* CONRAD       SUNNY     75  57  54 N/A        N/A
* DEARBORN     N/A       80  48  33 N/A        N/A
* EAST GLACIER N/A       76  51  42 SE7        N/A
* ROGERS PASS  N/A       77  43  30 SW2G11     N/A
* SAINT MARY   N/A       76  52  43 NE2        N/A
* SWEET GRASS  N/A       80  47  31 S8G14      N/A
* WHITE SULPH  N/A       77  49  37 NE5G11     N/A
$$

MTZ011-013-016-021-035-040-045-047-050-051-291800-
NORTH CENTRAL MONTANA
CITY           SKY/WX    TMP DP  RH WIND       PRES   REMARKS
HAVRE          SUNNY     82  50  33 CALM      30.18F
LEWISTOWN      SUNNY     81  46  29 E13G21    30.25F
* FORT BENTON  SUNNY     84  46  26 S3        30.18F
* CHESTER      N/A       82  46  28 SE8G16     N/A
* DENTON       N/A       81  49  33 SE7G15     N/A
* GEYSER       N/A       81  52  37 NE8        N/A
* JUDITH GAP   N/A       75  49  40 SE11G22    N/A
* LOMA         N/A       83  48  30 E7G18      N/A
$$

MTZ017>020-022>027-061-062-291800-
NORTHEAST MONTANA
CITY           SKY/WX    TMP DP  RH WIND       PRES   REMARKS
GLASGOW        SUNNY     86  43  22 NE9       30.19F
GLENDIVE       PTCLDY    81  54  39 NE6       30.23F
JORDAN         SUNNY     84  43  24 VRB6      30.20S
SIDNEY         SUNNY     81  57  44 N8        30.21F HI  81
WOLF POINT     SUNNY     84  48  29 E8        30.20F
* BEAVER HILL  N/A       75  54  48 NW6G12     N/A
* CIRCLE       N/A       82  57  43 NE8        N/A   HI  82
* LINDSAY DVD  N/A       77  52  42 NW6G11     N/A
$$

MTZ028>042-056>058-291800-
SOUTHCENTRAL AND SOUTHEAST MONTANA
CITY           SKY/WX    TMP DP  RH WIND       PRES   REMARKS
BAKER          CLOUDY    77  54  45 N6        30.25S
BILLINGS       PTCLDY    79  52  39 S5        30.22F
LIVINGSTON     PTCLDY    79  45  30 E12       30.26F
MILES CITY     CLOUDY    72  54  53 S8        30.21F
* LAUREL APT   PTCLDY    79  50  36 SE5        N/A
* ROUNDUP APT  PTCLDY    81  43  26 E6         N/A
* ALZADA       N/A       72  54  53 NE1        N/A
* HYSHAM       N/A       78  50  38 E16        N/A
* LAME DEER    N/A       73  53  50 NE5G11     N/A
* REED POINT   N/A       82  52  35 N4         N/A
* ROSCOE HILL  N/A       73  44  35 NW4        N/A
$$

REGIONAL REPORTS...DAKOTAS
CITY           SKY/WX    TMP DP  RH WIND       PRES   REMARKS
WILLISTON      SUNNY     79  55  44 E3        30.20F
DICKINSON      PTSUNNY   75  54  48 S8        30.22S
CROSBY         SUNNY     73  61  66 NE5       30.22S
TIOGA          SUNNY     75  57  54 S7        30.24S
WATFORD CITY   SUNNY     75  55  50 W3        30.18F
BISMARCK       SUNNY     75  54  48 VRB5      30.23F
GRAND FORKS    SUNNY     75  55  50 N6        30.16F
FARGO          PTCLDY    73  54  51 NW10      30.17F
BUFFALO SD     PTCLDY    77  54  45 S13       30.19S
RAPID CITY     CLOUDY    64  55  73 CALM      30.27R
$$

REGIONAL REPORTS...WYOMING/IDAHO/WASHINGTON
CITY           SKY/WX    TMP DP  RH WIND       PRES   REMARKS
GILLETTE       CLOUDY    64  59  84 SW8       30.29F
SHERIDAN       CLOUDY    70  57  64 S3        30.27S
YELLOWSTONE LA CLOUDY    59  46  62 CALM      30.47S
SALMON         PTCLDY    75  48  39 NW3       30.17F
MULLAN PASS    SUNNY     75  45  34 CALM      30.35S
SAND POINT     SUNNY     79  50  36 N9        30.12F
SPOKANE        SUNNY     82  46  28 NE3       30.11S
$$

REGIONAL REPORTS...ALBERTA
CITY           SKY/WX    TMP DP  RH WIND       PRES   REMARKS
CALGARY        SUNNY     79  52  39 VRB2      30.20S
LETHBRIDGE     SUNNY     77  57  50 S7        30.19S
MEDICINE HAT   N/A       81  54  39 VRB2      30.17F
EDMONTON       N/A       75  64  69 E3        30.13F
WATERTON GATE  N/A       82  50  33 E1         N/A
CARDSTON       N/A       81  59  47 S2         N/A   HI  81
MILK RIVER     N/A       82  48  31 S9         N/A
$$

REGIONAL REPORTS...SASKATCHEWAN
CITY           SKY/WX    TMP DP  RH WIND       PRES   REMARKS
SWIFT CURRENT  SUNNY     77  54  45 SE9       30.23S
MOOSE JAW      SUNNY     77  61  58 NW5       30.24S
REGINA         PTCLDY    75  61  62 N7        30.23S
VAL MARIE      N/A       79  52  39 E8         N/A
ASSINIBOIA     N/A       75  52  45 E8         N/A
CORONACH       N/A       77  52  42 N8         N/A

$$




USA.gov is the U.S. government's official web portal to all federal, state and local government web resources and services.